SCP
0 0 0 0 0 0 0 0 0 0 0 0 0 0 0 0 0 0 0 0 0 0 0 0 0 0 0 0 0 0 0 0 0 0 0 0 0 0 0 0 0 0 0
0 0 0 0 0 0 0 0 0 0 0 0 0 0 0 0 0 0 0 0 0 0 0 0 0 0 0 0 0 0 0 0 0 0 0 0 0 0 0 0 0 0 0
0 0 0 0 0 0 0 0 0 0 0 0 0 0 0 0 0 0 0 0 0 0 0 0 0 0 0 0 0 0 0 0 0 0 0 0 0 0 0 0 0 0 0
0 0 0 0 0 0 0 0 0 0 0 0 0 0 0 0 0 0 0 0 0 0 0 0 0 0 0 0 0 0 0 0 0 0 0 0 0 0 0 0 0 0 0
0 0 0 0 0 0 0 0 0 0 0 0 0 0 0 0 0 0 0 0 0 0 0 0 0 0 0 0 0 0 0 0 0 0 0 0 0 0 0 0 0 0 0
0 0 0 0 0 0 0 0 0 0 0 0 0 0 0 0 0 0 0 0 0 0 0 0 0 0 0 0 0 0 0 0 0 0 0 0 0 0 0 0 0 0 0
0 0 0 0 0 0 0 0 0 0 0 0 0 0 0 0 0 0 0 0 0 0 0 0 0 0 0 0 0 0 0 0 0 0 0 0 0 0 0 0 0 0 0
0 0 0 0 0 0 0 0 0 0 0 0 0 0 0 0 0 0 0 0 0 0 0 0 0 0 0 0 0 0 0 0 0 0 0 0 0 0 0 0 0 0 0
0 0 0 0 0 0 0 0 0 0 0 0 0 0 0 0 0 0 0 0 0 0 0 0 0 0 0 0 0 0 0 0 0 0 0 0 0 0 0 0 0 0 0
0 0 0 0 0 0 0 0 0 0 0 0 0 0 0 0 0 0 0 0 0 0 0 0 0 0 0 0 0 0 0 0 0 0 0 0 0 0 0 0 0 0 0
0 0 0 0 0 0 0 0 0 0 0 0 0 0 0 0 0 0 0 0 0 0 0 0 0 0 0 0 0 0 0 0 0 0 0 0 0 0 0 0 0 0 0
0 0 0 0 0 0 0 0 0 0 0 0 0 0 0 0 0 0 0 0 0 0 0 0 0 0 0 0 0 0 0 0 0 0 0 0 0 0 0 0 0 0 0
0 0 0 0 0 0 0 0 0 0 0 0 0 0 0 0 0 0 0 0 0 0 0 0 0 0 0 0 0 0 0 0 0 0 0 0 0 0 0 0 0 0 0
0 0 0 0 0 0 0 0 0 0 0 0 0 0 0 0 0 0 0 0 0 0 0 0 0 0 0 0 0 0 0 0 0 0 0 0 0 0 0 0 0 0 0
0 0 0 0 0 0 0 0 0 0 0 0 0 0 0 0 0 0 0 0 0 0 0 0 0 0 0 0 0 0 0 0 0 0 0 0 0 0 0 0 0 0 0
0 0 0 0 0 0 0 0 0 0 0 0 0 0 0 0 0 0 0 0 0 0 0 0 0 0 0 0 0 0 0 0 0 0 0 0 0 0 0 0 0 0 0
0 0 0 0 0 0 0 0 0 0 0 0 0 0 0 0 0 0 0 0 0 0 0 0 0 0 0 0 0 0 0 0 0 0 0 0 0 0 0 0 0 0 0
0 0 0 0 0 0 0 0 0 0 0 0 0 0 0 0 0 0 0 0 0 0 0 0 0 0 0 0 0 0 0 0 0 0 0 0 0 0 0 0 0 0 0
0 0 0 0 0 0 0 0 0 0 0 0 0 0 0 0 0 0 0 0 0 0 0 0 0 0 0 0 0 0 0 0 0 0 0 0 0 0 0 0 0 0 0
0 0 0 0 0 0 0 0 0 0 0 0 0 0 0 0 0 0 0 0 0 0 0 0 0 0 0 0 0 0 0 0 0 0 0 0 0 0 0 0 0 0 0
0 0 0 0 0 0 0 0 0 0 0 0 0 0 0 0 0 0 0 0 0 0 0 0 0 0 0 0 0 0 0 0 0 0 0 0 0 0 0 0 0 0 0
0 0 0 0 0 0 0 0 0 0 0 0 0 0 0 0 0 0 0 0 0 0 0 0 0 0 0 0 0 0 0 0 0 0 0 0 0 0 0 0 0 0 0
0 0 0 0 0 0 0 0 0 0 0 0 0 0 0 0 0 0 0 0 0 0 0 0 0 0 0 0 0 0 0 0 0 0 0 0 0 0 0 0 0 0 0
0 0 0 0 0 0 0 0 0 0 0 0 0 0 0 0 0 0 0 0 0 0 0 0 0 0 0 0 0 0 0 0 0 0 0 0 0 0 0 0 0 0 0
0 0 0 0 0 0 0 0 0 0 0 0 0 0 0 0 0 0 0 0 0 0 0 0 0 0 0 0 0 0 0 0 0 0 0 0 0 0 0 0 0 0 0
0 0 0 0 0 0 0 0 0 0 0 0 0 0 0 0 0 0 0 0 0 0 0 0 0 0 0 0 0 0 0 0 0 0 0 0 0 0 0 0 0 0 0
Wind_Speed_500mb
18 15 7 2 6 7 13 22 29 40 49 57 69 75 75 75 82 82 60 51 58 61 65 53 37 34 42 32 25 24 21 14 2 11 16 20 19 23 28 26 22 22 24
20 16 14 7 5 2 4 10 10 11 21 28 25 20 18 28 25 27 31 42 43 46 38 28 22 24 25 20 20 14 4 6 8 10 10 17 29 29 21 20 20 22 25
39 38 39 39 34 33 27 17 17 15 11 13 13 14 21 11 9 13 9 15 22 32 31 26 24 20 16 14 6 5 6 9 12 19 24 27 20 16 16 18 20 24 28
48 46 44 42 41 41 38 34 33 37 35 34 37 36 38 38 31 33 28 30 29 26 23 16 12 10 6 4 6 11 10 10 10 11 12 14 11 10 13 19 23 27 31
47 40 42 39 35 33 27 24 24 25 26 26 28 28 27 29 29 29 28 22 17 14 12 8 10 8 8 7 8 10 12 12 11 9 9 8 6 9 15 20 24 30 34
43 41 38 35 32 32 31 30 29 29 33 31 29 28 23 20 16 11 9 10 13 13 14 19 18 16 16 15 12 11 10 8 6 4 4 4 6 10 15 21 28 35 37
44 42 38 36 33 35 33 29 24 22 19 17 18 19 20 22 22 21 21 18 18 20 18 16 15 14 12 11 8 6 4 2 1 3 5 7 10 15 21 25 29 33 38
48 43 40 37 36 34 31 34 32 31 29 30 26 24 21 26 24 22 19 17 17 17 16 16 13 12 9 7 5 2 2 2 4 8 11 13 16 20 24 28 32 37 39
46 45 41 37 33 31 30 33 27 25 25 23 22 23 19 22 20 17 17 14 13 12 11 10 8 6 3 4 3 5 7 8 11 14 16 19 21 24 27 31 34 39 47
44 41 37 33 31 31 31 28 27 24 23 21 17 18 18 17 17 15 13 11 8 7 6 3 3 4 4 6 8 10 14 16 18 21 23 25 27 28 32 34 37 39 42
37 35 33 30 29 29 27 25 22 20 19 17 16 16 15 14 12 9 9 8 6 5 5 6 6 7 10 12 15 17 19 23 25 28 29 30 30 30 31 35 38 41 43
34 30 28 26 25 23 22 20 17 15 15 14 13 14 12 11 8 8 7 7 8 9 10 11 13 14 17 19 23 24 25 29 31 32 34 34 34 36 39 41 43 44 46
25 25 25 24 23 21 19 16 14 14 13 11 10 8 7 6 6 6 8 10 12 13 15 17 19 22 25 26 28 32 35 35 35 36 38 40 42 42 45 49 49 50 52
17 17 15 15 16 16 15 14 12 11 10 10 9 8 9 11 12 12 12 14 16 19 21 24 27 30 32 33 35 37 40 42 41 41 45 46 46 50 54 55 59 55 62
16 16 15 15 14 14 14 14 14 14 14 14 13 13 15 17 17 17 18 21 23 26 29 31 33 36 37 38 37 37 37 40 43 44 47 51 53 56 59 59 60 61 62
21 21 21 21 21 21 22 22 22 21 21 22 22 25 24 24 27 29 29 29 27 32 37 37 35 34 33 33 34 36 39 43 45 46 49 52 56 58 60 58 55 55 57
24 24 26 27 28 29 28 28 28 28 27 28 29 31 35 34 36 34 33 27 27 33 39 39 39 38 36 38 39 40 42 42 44 46 49 52 54 57 58 58 55 53 53
27 25 24 24 27 30 31 30 30 30 29 29 31 33 33 35 35 37 35 33 33 32 36 40 42 39 37 38 39 41 44 46 48 51 53 53 54 54 54 53 50 51 53
34 31 27 24 23 23 24 27 29 29 30 31 33 36 35 35 35 36 34 34 32 33 38 40 38 38 39 41 42 44 45 46 46 48 48 48 48 49 50 50 49 49 51
30 28 25 23 22 21 20 21 22 23 24 25 28 31 33 29 26 28 29 32 34 33 31 33 34 36 38 39 39 41 42 42 42 43 44 44 44 44 44 46 46 47 48
23 20 18 16 16 18 18 18 17 18 19 21 22 23 25 24 24 23 24 25 26 27 28 29 30 31 32 34 35 36 37 37 38 39 41 41 41 41 42 42 43 45 47
18 14 12 12 12 12 12 12 12 12 13 15 16 17 19 19 19 20 22 23 24 25 26 26 27 28 29 31 32 33 34 34 34 35 36 37 37 37 38 39 39 39 41
15 12 10 11 11 12 12 12 13 13 14 15 16 17 18 19 19 20 21 22 23 24 25 26 27 27 27 28 29 30 30 31 31 31 32 32 33 34 35 36 36 36 36
13 12 12 12 12 13 13 14 14 15 16 16 17 18 19 19 20 20 21 22 22 23 24 25 26 26 26 26 27 28 29 29 30 30 32 33 33 34 34 33 34 35 36
10 10 9 9 10 11 12 14 15 15 16 17 17 18 18 19 20 22 23 23 24 25 27 29 30 31 31 31 30 30 28 27 28 32 33 34 37 38 38 37 37 37 37
10 10 11 11 12 13 14 14 15 16 17 17 18 19 20 22 24 26 27 28 30 31 33 34 35 36 35 35 34 33 30 27 26 28 37 41 42 42 39 38 35 36 39
Wind_Direction_500mb
151 146 165 233 253 254 263 275 274 258 252 228 238 238 238 235 237 235 235 245 259 252 251 238 235 240 242 221 215 221 191 237 220 216 231 229 232 240 255 257 266 278 283
124 117 105 96 98 109 147 204 201 209 200 184 194 220 238 229 250 242 255 245 240 216 207 203 175 150 136 115 108 122 35 343 337 301 275 262 257 254 259 265 271 279 290
109 106 104 99 97 93 93 112 126 124 128 128 136 163 162 145 167 168 182 180 166 138 123 121 115 120 95 82 38 320 283 269 254 254 253 245 242 243 255 269 287 296 301
95 94 97 96 95 94 94 91 94 99 97 95 95 102 103 100 102 113 111 120 119 104 103 93 104 97 77 56 221 232 228 228 222 215 216 208 221 250 275 291 299 300 302
88 89 85 84 85 86 90 93 92 93 92 91 98 102 100 101 101 109 105 96 87 91 83 109 132 149 139 143 168 159 151 158 165 173 180 194 226 267 289 296 302 306 310
90 86 85 85 84 84 85 82 80 81 88 89 83 80 78 82 97 108 105 113 125 133 146 131 117 124 138 143 144 141 136 139 145 165 204 251 279 295 302 310 317 320 323
87 89 85 83 88 89 89 85 84 86 90 96 106 114 118 109 104 104 101 109 107 109 114 121 133 134 136 136 133 113 105 74 328 301 301 317 317 318 318 319 318 314 315
85 83 82 84 84 86 91 95 93 97 101 102 102 95 99 103 100 97 93 96 104 111 118 123 126 125 128 116 95 73 56 355 329 328 329 325 322 319 318 316 316 315 314
82 82 80 79 80 81 82 79 79 81 88 93 95 99 99 100 98 98 99 97 98 106 108 108 112 116 87 60 22 343 334 331 326 321 319 320 320 319 318 318 318 319 320
73 73 75 77 80 78 77 82 81 81 80 82 87 88 89 91 88 83 79 81 81 82 86 77 44 5 335 333 333 328 326 319 319 320 320 318 317 317 320 322 323 323 321
71 71 71 71 71 71 70 71 69 68 70 77 75 78 77 78 76 66 63 55 38 25 10 347 331 319 314 319 318 317 315 313 314 313 311 308 310 314 319 321 321 319 317
58 56 57 58 59 61 63 62 61 62 59 55 56 52 48 45 45 23 359 343 329 320 314 309 306 303 302 300 299 300 302 304 307 306 306 308 312 315 318 317 316 314 310
58 55 53 50 48 45 45 45 40 42 35 31 33 28 13 358 349 330 313 313 312 307 302 299 295 293 292 290 293 298 302 303 304 306 307 310 310 312 312 310 310 308 305
35 33 30 26 22 20 20 20 17 16 5 359 357 345 332 320 313 303 305 306 310 310 311 311 309 306 299 298 299 300 299 299 299 301 306 306 306 307 307 310 312 316 311
5 1 357 351 344 338 331 327 323 319 316 313 308 300 293 295 297 300 305 309 308 307 307 306 304 299 298 299 300 298 297 297 298 302 304 303 305 308 310 314 315 313 309
332 324 319 315 313 313 314 312 307 303 299 294 290 292 291 296 299 294 298 302 304 309 310 308 308 308 305 303 302 300 301 303 303 303 303 305 306 308 308 309 307 305 306
346 331 313 305 301 298 295 293 294 294 293 291 287 282 284 288 289 285 283 288 292 306 303 310 307 302 299 298 299 300 300 301 301 301 299 301 303 302 303 305 307 306 305
331 326 319 312 300 293 292 291 290 289 286 283 279 278 275 279 286 287 291 282 285 291 291 291 294 292 294 293 295 296 297 298 299 300 302 303 303 304 307 307 307 308 307
321 317 313 309 305 298 291 288 287 287 287 286 284 282 281 283 283 279 282 280 279 284 283 284 284 290 295 297 298 299 300 302 303 301 302 303 305 307 308 309 310 310 309
312 308 307 306 304 300 294 290 287 286 283 281 280 282 284 287 281 280 280 279 284 290 291 293 293 294 297 299 301 303 305 307 307 306 306 308 309 309 309 310 312 311 311
321 315 309 309 308 307 305 301 298 293 288 285 288 291 298 298 296 295 297 299 300 299 300 301 302 305 307 310 311 313 314 314 313 313 313 313 313 313 312 312 313 313 314
332 327 322 317 316 315 315 315 313 310 309 306 308 309 313 314 313 312 314 316 318 318 318 320 321 321 322 322 322 322 323 323 321 319 318 318 318 318 317 318 319 320 321
342 340 334 331 331 332 333 334 333 333 332 330 328 328 329 331 333 334 335 333 332 331 332 334 336 338 336 334 333 333 333 333 333 331 331 332 334 333 331 330 329 329 330
345 346 346 347 347 349 349 350 350 349 349 346 345 345 346 347 349 350 350 349 348 347 346 346 346 347 346 344 340 337 336 336 336 338 338 340 342 341 342 342 342 343 342
6 12 14 12 11 9 8 6 3 1 360 358 358 359 1 1 359 357 355 353 352 350 347 344 340 337 335 333 332 332 333 335 341 338 332 333 335 337 335 330 329 330 333
27 31 31 31 31 31 30 29 26 23 19 14 10 5 0 356 352 348 345 341 337 335 333 331 329 328 326 324 320 318 317 321 329 325 318 320 322 322 322 326 327 327 327
Wind_Speed_850mb
18 15 7 2 6 7 13 22 29 40 49 57 69 75 75 75 82 82 60 51 58 61 65 53 37 34 42 32 25 24 21 14 2 11 16 20 19 23 28 26 22 22 24
20 16 14 7 5 2 4 10 10 11 21 28 25 20 18 28 25 27 31 42 43 46 38 28 22 24 25 20 20 14 4 6 8 10 10 17 29 29 21 20 20 22 25
39 38 39 39 34 33 27 17 17 15 11 13 13 14 21 11 9 13 9 15 22 32 31 26 24 20 16 14 6 5 6 9 12 19 24 27 20 16 16 18 20 24 28
48 46 44 42 41 41 38 34 33 37 35 34 37 36 38 38 31 33 28 30 29 26 23 16 12 10 6 4 6 11 10 10 10 11 12 14 11 10 13 19 23 27 31
47 40 42 39 35 33 27 24 24 25 26 26 28 28 27 29 29 29 28 22 17 14 12 8 10 8 8 7 8 10 12 12 11 9 9 8 6 9 15 20 24 30 34
43 41 38 35 32 32 31 30 29 29 33 31 29 28 23 20 16 11 9 10 13 13 14 19 18 16 16 15 12 11 10 8 6 4 4 4 6 10 15 21 28 35 37
44 42 38 36 33 35 33 29 24 22 19 17 18 19 20 22 22 21 21 18 18 20 18 16 15 14 12 11 8 6 4 2 1 3 5 7 10 15 21 25 29 33 38
48 43 40 37 36 34 31 34 32 31 29 30 26 24 21 26 24 22 19 17 17 17 16 16 13 12 9 7 5 2 2 2 4 8 11 13 16 20 24 28 32 37 39
46 45 41 37 33 31 30 33 27 25 25 23 22 23 19 22 20 17 17 14 13 12 11 10 8 6 3 4 3 5 7 8 11 14 16 19 21 24 27 31 34 39 47
44 41 37 33 31 31 31 28 27 24 23 21 17 18 18 17 17 15 13 11 8 7 6 3 3 4 4 6 8 10 14 16 18 21 23 25 27 28 32 34 37 39 42
37 35 33 30 29 29 27 25 22 20 19 17 16 16 15 14 12 9 9 8 6 5 5 6 6 7 10 12 15 17 19 23 25 28 29 30 30 30 31 35 38 41 43
34 30 28 26 25 23 22 20 17 15 15 14 13 14 12 11 8 8 7 7 8 9 10 11 13 14 17 19 23 24 25 29 31 32 34 34 34 36 39 41 43 44 46
25 25 25 24 23 21 19 16 14 14 13 11 10 8 7 6 6 6 8 10 12 13 15 17 19 22 25 26 28 32 35 35 35 36 38 40 42 42 45 49 49 50 52
17 17 15 15 16 16 15 14 12 11 10 10 9 8 9 11 12 12 12 14 16 19 21 24 27 30 32 33 35 37 40 42 41 41 45 46 46 50 54 55 59 55 62
16 16 15 15 14 14 14 14 14 14 14 14 13 13 15 17 17 17 18 21 23 26 29 31 33 36 37 38 37 37 37 40 43 44 47 51 53 56 59 59 60 61 62
21 21 21 21 21 21 22 22 22 21 21 22 22 25 24 24 27 29 29 29 27 32 37 37 35 34 33 33 34 36 39 43 45 46 49 52 56 58 60 58 55 55 57
24 24 26 27 28 29 28 28 28 28 27 28 29 31 35 34 36 34 33 27 27 33 39 39 39 38 36 38 39 40 42 42 44 46 49 52 54 57 58 58 55 53 53
27 25 24 24 27 30 31 30 30 30 29 29 31 33 33 35 35 37 35 33 33 32 36 40 42 39 37 38 39 41 44 46 48 51 53 53 54 54 54 53 50 51 53
34 31 27 24 23 23 24 27 29 29 30 31 33 36 35 35 35 36 34 34 32 33 38 40 38 38 39 41 42 44 45 46 46 48 48 48 48 49 50 50 49 49 51
30 28 25 23 22 21 20 21 22 23 24 25 28 31 33 29 26 28 29 32 34 33 31 33 34 36 38 39 39 41 42 42 42 43 44 44 44 44 44 46 46 47 48
23 20 18 16 16 18 18 18 17 18 19 21 22 23 25 24 24 23 24 25 26 27 28 29 30 31 32 34 35 36 37 37 38 39 41 41 41 41 42 42 43 45 47
18 14 12 12 12 12 12 12 12 12 13 15 16 17 19 19 19 20 22 23 24 25 26 26 27 28 29 31 32 33 34 34 34 35 36 37 37 37 38 39 39 39 41
15 12 10 11 11 12 12 12 13 13 14 15 16 17 18 19 19 20 21 22 23 24 25 26 27 27 27 28 29 30 30 31 31 31 32 32 33 34 35 36 36 36 36
13 12 12 12 12 13 13 14 14 15 16 16 17 18 19 19 20 20 21 22 22 23 24 25 26 26 26 26 27 28 29 29 30 30 32 33 33 34 34 33 34 35 36
10 10 9 9 10 11 12 14 15 15 16 17 17 18 18 19 20 22 23 23 24 25 27 29 30 31 31 31 30 30 28 27 28 32 33 34 37 38 38 37 37 37 37
10 10 11 11 12 13 14 14 15 16 17 17 18 19 20 22 24 26 27 28 30 31 33 34 35 36 35 35 34 33 30 27 26 28 37 41 42 42 39 38 35 36 39
Wind_Direction_850mb
151 146 165 233 253 254 263 275 274 258 252 228 238 238 238 235 237 235 235 245 259 252 251 238 235 240 242 221 215 221 191 237 220 216 231 229 232 240 255 257 266 278 283
124 117 105 96 98 109 147 204 201 209 200 184 194 220 238 229 250 242 255 245 240 216 207 203 175 150 136 115 108 122 35 343 337 301 275 262 257 254 259 265 271 279 290
109 106 104 99 97 93 93 112 126 124 128 128 136 163 162 145 167 168 182 180 166 138 123 121 115 120 95 82 38 320 283 269 254 254 253 245 242 243 255 269 287 296 301
95 94 97 96 95 94 94 91 94 99 97 95 95 102 103 100 102 113 111 120 119 104 103 93 104 97 77 56 221 232 228 228 222 215 216 208 221 250 275 291 299 300 302
88 89 85 84 85 86 90 93 92 93 92 91 98 102 100 101 101 109 105 96 87 91 83 109 132 149 139 143 168 159 151 158 165 173 180 194 226 267 289 296 302 306 310
90 86 85 85 84 84 85 82 80 81 88 89 83 80 78 82 97 108 105 113 125 133 146 131 117 124 138 143 144 141 136 139 145 165 204 251 279 295 302 310 317 320 323
87 89 85 83 88 89 89 85 84 86 90 96 106 114 118 109 104 104 101 109 107 109 114 121 133 134 136 136 133 113 105 74 328 301 301 317 317 318 318 319 318 314 315
85 83 82 84 84 86 91 95 93 97 101 102 102 95 99 103 100 97 93 96 104 111 118 123 126 125 128 116 95 73 56 355 329 328 329 325 322 319 318 316 316 315 314
82 82 80 79 80 81 82 79 79 81 88 93 95 99 99 100 98 98 99 97 98 106 108 108 112 116 87 60 22 343 334 331 326 321 319 320 320 319 318 318 318 319 320
73 73 75 77 80 78 77 82 81 81 80 82 87 88 89 91 88 83 79 81 81 82 86 77 44 5 335 333 333 328 326 319 319 320 320 318 317 317 320 322 323 323 321
71 71 71 71 71 71 70 71 69 68 70 77 75 78 77 78 76 66 63 55 38 25 10 347 331 319 314 319 318 317 315 313 314 313 311 308 310 314 319 321 321 319 317
58 56 57 58 59 61 63 62 61 62 59 55 56 52 48 45 45 23 359 343 329 320 314 309 306 303 302 300 299 300 302 304 307 306 306 308 312 315 318 317 316 314 310
58 55 53 50 48 45 45 45 40 42 35 31 33 28 13 358 349 330 313 313 312 307 302 299 295 293 292 290 293 298 302 303 304 306 307 310 310 312 312 310 310 308 305
35 33 30 26 22 20 20 20 17 16 5 359 357 345 332 320 313 303 305 306 310 310 311 311 309 306 299 298 299 300 299 299 299 301 306 306 306 307 307 310 312 316 311
5 1 357 351 344 338 331 327 323 319 316 313 308 300 293 295 297 300 305 309 308 307 307 306 304 299 298 299 300 298 297 297 298 302 304 303 305 308 310 314 315 313 309
332 324 319 315 313 313 314 312 307 303 299 294 290 292 291 296 299 294 298 302 304 309 310 308 308 308 305 303 302 300 301 303 303 303 303 305 306 308 308 309 307 305 306
346 331 313 305 301 298 295 293 294 294 293 291 287 282 284 288 289 285 283 288 292 306 303 310 307 302 299 298 299 300 300 301 301 301 299 301 303 302 303 305 307 306 305
331 326 319 312 300 293 292 291 290 289 286 283 279 278 275 279 286 287 291 282 285 291 291 291 294 292 294 293 295 296 297 298 299 300 302 303 303 304 307 307 307 308 307
321 317 313 309 305 298 291 288 287 287 287 286 284 282 281 283 283 279 282 280 279 284 283 284 284 290 295 297 298 299 300 302 303 301 302 303 305 307 308 309 310 310 309
312 308 307 306 304 300 294 290 287 286 283 281 280 282 284 287 281 280 280 279 284 290 291 293 293 294 297 299 301 303 305 307 307 306 306 308 309 309 309 310 312 311 311
321 315 309 309 308 307 305 301 298 293 288 285 288 291 298 298 296 295 297 299 300 299 300 301 302 305 307 310 311 313 314 314 313 313 313 313 313 313 312 312 313 313 314
332 327 322 317 316 315 315 315 313 310 309 306 308 309 313 314 313 312 314 316 318 318 318 320 321 321 322 322 322 322 323 323 321 319 318 318 318 318 317 318 319 320 321
342 340 334 331 331 332 333 334 333 333 332 330 328 328 329 331 333 334 335 333 332 331 332 334 336 338 336 334 333 333 333 333 333 331 331 332 334 333 331 330 329 329 330
345 346 346 347 347 349 349 350 350 349 349 346 345 345 346 347 349 350 350 349 348 347 346 346 346 347 346 344 340 337 336 336 336 338 338 340 342 341 342 342 342 343 342
6 12 14 12 11 9 8 6 3 1 360 358 358 359 1 1 359 357 355 353 352 350 347 344 340 337 335 333 332 332 333 335 341 338 332 333 335 337 335 330 329 330 333
27 31 31 31 31 31 30 29 26 23 19 14 10 5 0 356 352 348 345 341 337 335 333 331 329 328 326 324 320 318 317 321 329 325 318 320 322 322 322 326 327 327 327